Location: Bodham
(52.9000°N, 1.1667°E)
Time: 14:06:56
(UTC+00:00)

Cosmos 2112 Rocket - Pass Details

Date: 16 October 2025
Orbit: 753 x 782 km, 74.0° (Epoch: 13 November)

Event Time Altitude Azimuth Distance (km) Brightness Sun altitude
Rises 04:11:02 0° 336° (NNW) 3,255 7.1 -20.6°
Reaches altitude 10° 04:13:46 10° 349° (N) 2,320 6.5 -20.2°
Maximum altitude 04:18:15 27° 47° (NE) 1,428 6.0 -19.5°
Drops below altitude 10° 04:22:41 10° 106° (ESE) 2,293 7.4 -18.9°
Sets 04:25:22 0° 118° (ESE) 3,210 8.1 -18.5°
